Modesto, CA

5:23 AM PDT on October 18, 2019 (GMT -0700)
Modesto City-County-Sham

Weather History for KMOD - September, 2019

Change the Weather History Date:

Tuesday, September 17, 2019

  Actual Average Record
Temperature  
Mean Temperature 69 °F -  
Max Temperature 82 °F 89 °F 102 °F (1984)
Min Temperature 56 °F 59 °F 46 °F (1959)
Degree Days  
Heating Degree Days 0 0  
Month to date heating degree days 0 0  
Since 1 July heating degree days 0 0  
Cooling Degree Days 4 9  
Month to date cooling degree days 187 175  
Year to date cooling degree days 1622 1511  
Growing Degree Days 19 (Base 50)    
Moisture  
Dew Point 49 °F    
Average Humidity 52    
Maximum Humidity 80    
Minimum Humidity 23    
Precipitation  
Precipitation 0.00 in 0.01 in 0.74 in (1950)
Month to date precipitation 0.12 0.09  
Year to date precipitation 8.98 8.86  
Snow  
Snow 0.00 in - - ()
Month to date snowfall 0.0  
Since 1 July snowfall 0.0  
Since 1 September snowfall 0.0  
Snow Depth 0.00 in    
Sea Level Pressure  
Sea Level Pressure 29.99 in    
Wind  
Wind Speed 7 mph (NNW)    
Max Wind Speed 15 mph    
Max Gust Speed 22 mph    
Visibility 10 miles    
Events      
T = Trace of Precipitation, MM = Missing Value Source: NWS Daily Summary

Daily Weather History Graph

Daily Weather History Graph

Search for Another Location

Airport or City:

Astronomy

Sep. 17, 2019 Rise Set
Actual Time 6:47 AM PDT 7:08 PM PDT
Civil Twilight 6:21 AM PDT 7:34 PM PDT
Nautical Twilight 5:50 AM PDT 8:05 PM PDT
Astronomical Twilight 5:18 AM PDT 8:36 PM PDT
Moon 9:17 PM PDT (9/17) 9:53 AM PDT (9/17)
Length of Visible Light 13h 13m
Length of Day
12h 21m
Waning Gibbous, 88% of the Moon is Illuminated
Sep 17
Waning Gibbous
Sep 21
Last Quarter
Sep 28
New
Oct 5
First Quarter
Oct 13
Full

Hourly Weather History & Observations

Time (PDT) Temp. Dew Point Humidity Pressure Visibility Wind Dir Wind Speed Gust Speed Precip Events Conditions
12:53 AM 61.0 °F 52.0 °F 72% 29.98 in 10.0 mi NNE 4.6 mph - N/A   Clear
1:53 AM 59.0 °F 53.1 °F 81% 29.99 in 10.0 mi North 4.6 mph - N/A   Clear
2:53 AM 59.0 °F 52.0 °F 78% 29.99 in 10.0 mi North 6.9 mph - N/A   Clear
3:53 AM 59.0 °F 52.0 °F 78% 30.00 in 10.0 mi North 6.9 mph - N/A   Clear
4:53 AM 59.0 °F 52.0 °F 78% 30.01 in 10.0 mi Calm Calm - N/A   Clear
5:53 AM 57.0 °F 52.0 °F 83% 30.01 in 10.0 mi NW 4.6 mph - N/A   Clear
6:53 AM 57.0 °F 52.0 °F 83% 30.03 in 10.0 mi NW 5.8 mph - N/A   Clear
7:53 AM 57.9 °F 52.0 °F 81% 30.04 in 10.0 mi NW 4.6 mph - N/A   Clear
8:53 AM 63.0 °F 52.0 °F 67% 30.04 in 10.0 mi NW 10.4 mph - N/A   Clear
9:53 AM 66.9 °F 52.0 °F 59% 30.04 in 10.0 mi NW 9.2 mph - N/A   Clear
10:53 AM 69.1 °F 52.0 °F 54% 30.05 in 10.0 mi WNW 11.5 mph - N/A   Clear
11:53 AM 72.0 °F 54.0 °F 53% 30.04 in 10.0 mi NW 9.2 mph - N/A   Clear
12:53 PM 75.0 °F 52.0 °F 44% 30.02 in 10.0 mi WNW 8.1 mph - N/A   Clear
1:53 PM 78.1 °F 48.0 °F 35% 30.00 in 10.0 mi WNW 8.1 mph - N/A   Clear
2:53 PM 80.1 °F 46.9 °F 31% 29.98 in 10.0 mi NW 5.8 mph - N/A   Clear
3:53 PM 81.0 °F 42.1 °F 25% 29.96 in 10.0 mi NNW 10.4 mph - N/A   Clear
4:53 PM 81.0 °F 43.0 °F 26% 29.95 in 10.0 mi North 5.8 mph 17.3 mph N/A   Clear
5:53 PM 80.1 °F 39.0 °F 23% 29.94 in 10.0 mi NNW 9.2 mph - N/A   Clear
6:53 PM 78.1 °F 39.0 °F 25% 29.94 in 10.0 mi North 8.1 mph - N/A   Clear
7:53 PM 73.9 °F 46.9 °F 38% 29.94 in 10.0 mi NNW 10.4 mph - N/A   Clear
8:53 PM 69.1 °F 44.1 °F 40% 29.95 in 10.0 mi NW 12.7 mph - N/A   Clear
9:53 PM 68.0 °F 44.1 °F 42% 29.95 in 10.0 mi NW 15.0 mph 21.9 mph N/A   Clear
10:53 PM 66.0 °F 48.0 °F 52% 29.94 in 10.0 mi NW 11.5 mph - N/A   Clear
11:53 PM 64.9 °F 50.0 °F 58% 29.94 in 10.0 mi North 6.9 mph - N/A   Clear